Regional Weather Roundup
Issued by NWS

Home | Current Version | Previous Version | Graphics & Text | Print | Product List | Glossary On
Versions: 1 2 3 4 5 6 7 8 9 10 11 12 13 14 15 16 17 18 19 20 21 22 23 24 25 26 27 28 29 30 31 32 33 34 35 36 37 38 39 40 41 42 43 44 45 46 47 48 49 50
000
ASUS45 KBOU 182207
RWRCO

WEATHER ROUNDUP FOR COLORADO
NATIONAL WEATHER SERVICE DENVER/BOULDER CO
300 PM MST WED JAN 18 2017

NOTE: "FAIR" INDICATES FEW OR NO CLOUDS BELOW 12000 FEET WITH NO
SIGNIFICANT WEATHER AND/OR OBSTRUCTIONS TO VISIBILITY.

COZ001>005-013-030-031-182300-
...NORTHWEST COLORADO...

CITY           SKY/WX    TMP DP  RH WIND       PRES   REMARKS
CRAIG          FAIR      18  11  74 CALM      30.01F
HAYDEN         FAIR      25  14  63 CALM      29.99F
MEEKER         FAIR      32  20  61 SW6       29.98F WCI  26
MOUNT WERNER   NOT AVBL
STEAMBOAT SPGS FAIR      23  13  63 CALM      29.99S
WALDEN           N/A    N/A N/A N/A CALM      29.98F
$$

COZ006>008-011-182300-
...WEST CENTRAL VALLEYS...

CITY           SKY/WX    TMP DP  RH WIND       PRES   REMARKS
GRAND JUNCTION FAIR      43  32  65 NW10      30.01F
MONTROSE       FAIR      44  26  49 N6        30.01F
EAGLE          SUNNY     34  19  55 CALM      30.02F
RIFLE          FAIR      42  25  50 W9        29.99F
DELTA          FAIR      47  27  44 CALM      30.00F
NUCLA          FAIR      43  27  52 N3        30.04F
$$

COZ017>023-064>068-182300-
...SOUTHWEST COLORADO...

CITY           SKY/WX    TMP DP  RH WIND       PRES   REMARKS
DURANGO        CLOUDY    39  26  59 SW8       29.99F
CORTEZ         PTSUNNY   41  30  65 W10       30.02F
PAGOSA SPRINGS CLOUDY    35  26  70 SW10      29.99F WCI  27
TELLURIDE      FAIR      34  18  50 W9        30.01S WCI  27
WOLF CREEK PAS CLOUDY    18  18 100 SW9       30.03F WCI   6
$$

COZ009-010-012-014-032>034-037-058>063-182300-
...CENTRAL COLORADO...

CITY           SKY/WX    TMP DP  RH WIND       PRES   REMARKS
ASPEN          FAIR      33  15  47 NW5       29.97F WCI  29
BUENA VISTA    FAIR      32  14  47 CALM      29.90S
COPPER MTN     NOT AVBL
BERTHOUD PASS  NOT AVBL
COTTONWOOD PAS FAIR      37  10  32 CALM      29.92S
GUNNISON       FAIR      24  16  71 CALM      30.02F
KREMMLING      FAIR      30  18  59 CALM      30.02F
LEADVILLE      FAIR      35  11  36 NW10      29.92F WCI  27
MONARCH PASS   FAIR      18  14  86 MISG      30.07F
SALIDA         FAIR      43  17  35 SW8       29.96F
SUNLIGHT       FAIR      25  19  80 SW8       30.03S WCI  16
WILKERSON PASS FAIR      37  -6  15 CALM      29.97S
$$

COZ069>075-182300-
...SAN LUIS VALLEY/SANGRE DE CRISTO MOUNTAINS...

CITY           SKY/WX    TMP DP  RH WIND       PRES   REMARKS
ALAMOSA        CLOUDY    27  23  85 W5        29.99S WCI  22
LA VETA PASS   FOG       21  19  93 NE24G30   29.93R VSB 1   WCI   4
SAGUACHE       FAIR      32  23  69 S10       29.98S WCI  24
$$

COZ035-036-038>040-182300-
...NORTHERN COLORADO FRONT RANGE...

CITY           SKY/WX    TMP DP  RH WIND       PRES   REMARKS
DENVER INTL AP FAIR      52  12  20 SE6       29.78S
DMNS CITY PARK   N/A     56  10  15 N7        29.77F
AURORA         MOSUNNY   52  14  22 E6        29.79S
FRONT RANGE AP MOSUNNY   54  12  19 SE5       29.79F
ERIE MUNI ARPT FAIR      52  15  23 CALM      29.78S
BOULDER MUN AP FAIR      52  21  30 NE3       29.77F
CENTENNIAL     FAIR      52   3  13 CALM      29.78F
BROOMFIELD     MOSUNNY   54  10  17 CALM      29.79F
FORT COLLINS   FAIR      52  19  28 S6        29.79S
LONGMONT       FAIR      53  20  27 CALM      29.79F
$$

COZ041-046-047-076>085-087-088-182300-
...PIKES PEAK/PALMER DIVIDE AND SOUTHERN FOOTHILLS...

CITY           SKY/WX    TMP DP  RH WIND       PRES   REMARKS
COLO. SPRINGS  FAIR      50  14  23 S13       29.82F
A. F. ACADEMY  FAIR      51  13  21 S12       29.80F
SCHRIEVER AFB  NOT AVBL
ELLICOTT       FAIR     N/A N/A N/A S10       29.81F
FALCON         FAIR      50   6  17 S17G23    29.83F
FORT CARSON    MOSUNNY   48  18  29 SW9       29.82F
LIMON          FAIR      47  11  23 SE10      29.80F
MONUMENT HILL  FAIR      46  10  23 S3        29.83S
TRINIDAD       FAIR      40  24  53 CALM      29.85S
$$

COZ042>045-048>051-090-091-182300-
...NORTHEAST COLORADO...

CITY           SKY/WX    TMP DP  RH WIND       PRES   REMARKS
GREELEY ARPT   FAIR      53  26  35 S6        29.78F
AKRON          FAIR      47  21  35 SW6       29.78F
BURLINGTON     FAIR      45  29  53 S9        29.80F
WRAY           NOT AVBL
STERLING       FAIR      45  32  61 SW8       29.76F
HOLYOKE        FAIR      46  32  57 S6        29.79S
FORT MORGAN    FAIR      48  23  37 S5        29.79F
$$

COZ086-089-092>099-182300-
...SOUTHEAST COLORADO...

CITY           SKY/WX    TMP DP  RH WIND       PRES   REMARKS
PUEBLO         FAIR      50  27  40 E7        29.80F
LA JUNTA       FAIR      37  29  72 NE6       29.83F
LAMAR          FAIR      36  30  79 NW5       29.83F
SPRINGFIELD      N/A     51  35  54 S13       29.81F
$$



USA.gov is the U.S. government's official web portal to all federal, state and local government web resources and services.